| time (UTC) | temp F | wind direction | speed knots | gust knots | rain 1hr in | rain 24hr in | rain mn in | humidity % | barometer mb |
| 20260506162518 | 69 | 225 | 5.2 | 10.4 | 0.00 | 0.00 | 0.00 | 70 | 1009.1 |
| 20260506162038 | 69 | 225 | 7.0 | 13.0 | 0.00 | 0.00 | 0.00 | 69 | 1009.2 |
| 20260506161517 | 70 | 225 | 6.1 | 11.3 | 0.00 | 0.00 | 0.00 | 66 | 1009.4 |
| 20260506161017 | 70 | 225 | 5.2 | 11.3 | 0.00 | 0.00 | 0.00 | 63 | 1009.5 |
| 20260506160518 | 71 | 225 | 6.1 | 13.9 | 0.00 | 0.00 | 0.00 | 61 | 1009.3 |
| 20260506160017 | 72 | 225 | 7.0 | 14.8 | 0.00 | 0.00 | 0.00 | 60 | 1009.4 |
| 20260506155517 | 72 | 225 | 5.2 | 13.0 | 0.00 | 0.00 | 0.00 | 59 | 1009.4 |
| 20260506155018 | 72 | 225 | 5.2 | 13.9 | 0.00 | 0.00 | 0.00 | 59 | 1009.4 |
| 20260506154517 | 72 | 248 | 7.0 | 13.0 | 0.00 | 0.00 | 0.00 | 60 | 1009.3 |
| 20260506154017 | 71 | 225 | 6.1 | 14.8 | 0.00 | 0.00 | 0.00 | 61 | 1009.3 |
| 20260506153517 | 71 | 248 | 7.8 | 17.4 | 0.00 | 0.00 | 0.00 | 61 | 1009.3 |
| 20260506153017 | 71 | 225 | 7.0 | 15.6 | 0.00 | 0.00 | 0.00 | 61 | 1009.2 |
| 20260506152517 | 71 | 248 | 8.7 | 13.9 | 0.00 | 0.00 | 0.00 | 61 | 1009.4 |
| 20260506152017 | 71 | 225 | 7.8 | 14.8 | 0.00 | 0.00 | 0.00 | 61 | 1009.5 |
| 20260506151517 | 71 | 225 | 7.8 | 13.0 | 0.00 | 0.00 | 0.00 | 61 | 1009.6 |
| 20260506151017 | 72 | 225 | 7.0 | 16.5 | 0.00 | 0.00 | 0.00 | 61 | 1009.6 |
| 20260506150516 | 72 | 225 | 7.8 | 16.5 | 0.00 | 0.00 | 0.00 | 61 | 1009.6 |
| 20260506150017 | 72 | 225 | 4.3 | 13.0 | 0.00 | 0.00 | 0.00 | 61 | 1009.6 |
| 20260506145516 | 72 | 225 | 2.6 | 9.6 | 0.00 | 0.00 | 0.00 | 62 | 1009.6 |
| 20260506145018 | 72 | 225 | 1.7 | 7.8 | 0.00 | 0.00 | 0.00 | 63 | 1009.7 |
| 20260506144517 | 72 | 225 | 1.7 | 7.0 | 0.00 | 0.00 | 0.00 | 63 | 1009.6 |
| 20260506144016 | 71 | 203 | 0.9 | 4.3 | 0.00 | 0.00 | 0.00 | 65 | 1009.6 |
| 20260506143517 | 70 | 203 | 0.9 | 3.5 | 0.00 | 0.00 | 0.00 | 65 | 1009.5 |
| 20260506143017 | 70 | 225 | 2.6 | 6.1 | 0.00 | 0.00 | 0.00 | 66 | 1009.5 |
| 20260506142558 | 70 | 203 | 1.7 | 5.2 | 0.00 | 0.00 | 0.00 | 65 | 1009.5 |
| 20260506142018 | 70 | 203 | 0.9 | 2.6 | 0.00 | 0.00 | 0.00 | 65 | 1009.5 |
| 20260506141518 | 70 | 248 | 1.7 | 7.0 | 0.00 | 0.00 | 0.00 | 65 | 1009.5 |
| 20260506141017 | 70 | 225 | 2.6 | 6.1 | 0.00 | 0.00 | 0.00 | 65 | 1009.5 |
| 20260506140517 | 70 | 135 | 0.9 | 1.7 | 0.00 | 0.00 | 0.00 | 65 | 1009.6 |
| 20260506140017 | 70 | 180 | 0.9 | 3.5 | 0.00 | 0.00 | 0.00 | 65 | 1009.6 |
| 20260506135517 | 70 | 158 | 1.7 | 7.0 | 0.00 | 0.00 | 0.00 | 66 | 1009.7 |
| 20260506135017 | 70 | 203 | 0.9 | 4.3 | 0.00 | 0.00 | 0.00 | 66 | 1009.7 |
| 20260506134538 | 70 | 225 | 1.7 | 6.1 | 0.00 | 0.00 | 0.00 | 66 | 1009.7 |
| 20260506134017 | 70 | 225 | 1.7 | 7.8 | 0.00 | 0.00 | 0.00 | 66 | 1009.7 |
| 20260506133517 | 69 | 180 | 1.7 | 5.2 | 0.00 | 0.00 | 0.00 | 66 | 1009.8 |
| 20260506133017 | 69 | 203 | 0.9 | 6.1 | 0.00 | 0.00 | 0.00 | 67 | 1009.8 |
| 20260506132516 | 69 | 158 | 1.7 | 5.2 | 0.00 | 0.00 | 0.00 | 68 | 1010.0 |
| 20260506132017 | 69 | 158 | 0.9 | 3.5 | 0.00 | 0.00 | 0.00 | 68 | 1010.0 |
| 20260506131517 | 69 | 180 | 1.7 | 6.1 | 0.00 | 0.00 | 0.00 | 69 | 1009.9 |
| 20260506131016 | 68 | 203 | 1.7 | 8.7 | 0.00 | 0.00 | 0.00 | 70 | 1009.8 |
| 20260506130536 | 68 | 225 | 5.2 | 9.6 | 0.00 | 0.00 | 0.00 | 69 | 1009.8 |
| 20260506130016 | 68 | 225 | 3.5 | 10.4 | 0.00 | 0.00 | 0.00 | 70 | 1009.7 |
| 20260506125516 | 67 | 225 | 6.1 | 13.0 | 0.00 | 0.00 | 0.00 | 71 | 1009.7 |
| 20260506125016 | 67 | 225 | 3.5 | 8.7 | 0.00 | 0.00 | 0.00 | 72 | 1009.7 |
| 20260506124538 | 67 | 225 | 3.5 | 10.4 | 0.00 | 0.00 | 0.00 | 72 | 1009.7 |
| 20260506124017 | 66 | 203 | 3.5 | 8.7 | 0.00 | 0.00 | 0.00 | 72 | 1009.7 |
| 20260506123516 | 66 | 225 | 3.5 | 8.7 | 0.00 | 0.00 | 0.00 | 72 | 1009.8 |
| 20260506123038 | 66 | 225 | 2.6 | 7.0 | 0.00 | 0.00 | 0.00 | 72 | 1009.9 |
| 20260506122617 | 67 | 225 | 1.7 | 7.8 | 0.00 | 0.00 | 0.00 | 72 | 1009.9 |
| 20260506122018 | 67 | 225 | 2.6 | 7.8 | 0.00 | 0.00 | 0.00 | 71 | 1009.8 |
| 20260506121517 | 67 | 203 | 2.6 | 6.1 | 0.00 | 0.00 | 0.00 | 71 | 1009.8 |
| 20260506121016 | 67 | 225 | 2.6 | 6.1 | 0.00 | 0.00 | 0.00 | 72 | 1010.0 |
| 20260506120536 | 67 | 180 | 1.7 | 7.8 | 0.00 | 0.00 | 0.00 | 73 | 1010.1 |
| 20260506120018 | 66 | 225 | 3.5 | 9.6 | 0.00 | 0.00 | 0.00 | 74 | 1010.1 |
| 20260506115516 | 66 | 225 | 3.5 | 13.0 | 0.00 | 0.00 | 0.00 | 74 | 1010.1 |
| 20260506115018 | 66 | 225 | 4.3 | 10.4 | 0.00 | 0.00 | 0.00 | 76 | 1010.1 |
| 20260506114536 | 65 | 248 | 2.6 | 7.8 | 0.00 | 0.00 | 0.00 | 77 | 1010.2 |
| 20260506114038 | 65 | 225 | 4.3 | 11.3 | 0.00 | 0.00 | 0.00 | 77 | 1010.2 |
| 20260506113517 | 65 | 225 | 3.5 | 9.6 | 0.00 | 0.00 | 0.00 | 77 | 1010.1 |
| 20260506113016 | 64 | 225 | 2.6 | 7.8 | 0.00 | 0.00 | 0.00 | 78 | 1010.2 |
| 20260506112016 | 64 | 203 | 3.5 | 10.4 | 0.00 | 0.00 | 0.00 | 79 | 1010.1 |
| 20260506111518 | 64 | 225 | 3.5 | 10.4 | 0.00 | 0.00 | 0.00 | 79 | 1010.1 |
| 20260506111017 | 64 | 225 | 3.5 | 11.3 | 0.00 | 0.00 | 0.00 | 80 | 1010.0 |
| 20260506110536 | 63 | 203 | 2.6 | 9.6 | 0.00 | 0.00 | 0.00 | 81 | 1010.0 |
| 20260506110037 | 63 | 225 | 3.5 | 10.4 | 0.00 | 0.00 | 0.00 | 81 | 1010.0 |
| 20260506105516 | 63 | 225 | 3.5 | 8.7 | 0.00 | 0.00 | 0.00 | 81 | 1010.0 |
| 20260506105016 | 63 | 225 | 2.6 | 7.8 | 0.00 | 0.00 | 0.00 | 82 | 1010.0 |
| 20260506104517 | 62 | 203 | 1.7 | 7.0 | 0.00 | 0.00 | 0.00 | 82 | 1010.1 |
| 20260506104016 | 62 | 225 | 1.7 | 7.0 | 0.00 | 0.00 | 0.00 | 82 | 1010.0 |
| 20260506103516 | 62 | 203 | 1.7 | 7.8 | 0.00 | 0.00 | 0.00 | 83 | 1009.9 |
| 20260506103037 | 62 | 203 | 3.5 | 8.7 | 0.00 | 0.00 | 0.00 | 83 | 1009.9 |
| 20260506102518 | 62 | 225 | 2.6 | 9.6 | 0.00 | 0.00 | 0.00 | 83 | 1010.0 |
| 20260506102016 | 62 | 203 | 3.5 | 10.4 | 0.00 | 0.00 | 0.00 | 83 | 1009.9 |
| 20260506101518 | 62 | 203 | 1.7 | 6.1 | 0.00 | 0.00 | 0.00 | 83 | 1009.9 |
| 20260506101016 | 62 | 203 | 2.6 | 10.4 | 0.00 | 0.00 | 0.00 | 83 | 1009.8 |
| 20260506100537 | 62 | 225 | 2.6 | 8.7 | 0.00 | 0.00 | 0.00 | 84 | 1009.9 |
| 20260506100017 | 61 | 225 | 2.6 | 8.7 | 0.00 | 0.00 | 0.00 | 84 | 1009.9 |
| 20260506095517 | 61 | 225 | 2.6 | 7.0 | 0.00 | 0.00 | 0.00 | 84 | 1009.8 |
| 20260506095016 | 61 | 203 | 2.6 | 7.8 | 0.00 | 0.00 | 0.00 | 84 | 1009.8 |
| 20260506094517 | 61 | 180 | 2.6 | 6.1 | 0.00 | 0.00 | 0.00 | 84 | 1009.7 |
| 20260506094057 | 61 | 203 | 2.6 | 11.3 | 0.00 | 0.00 | 0.00 | 84 | 1009.7 |
| 20260506093516 | 61 | 180 | 1.7 | 7.8 | 0.00 | 0.00 | 0.00 | 84 | 1009.7 |
| 20260506093016 | 61 | 180 | 1.7 | 7.8 | 0.00 | 0.00 | 0.00 | 84 | 1009.8 |
| 20260506092516 | 61 | 203 | 1.7 | 6.1 | 0.00 | 0.00 | 0.00 | 83 | 1009.8 |
| 20260506092036 | 61 | 180 | 0.9 | 4.3 | 0.00 | 0.00 | 0.00 | 83 | 1009.8 |
| 20260506091516 | 61 | 203 | 0.9 | 7.0 | 0.00 | 0.00 | 0.00 | 83 | 1009.9 |
| 20260506091017 | 62 | 158 | 1.7 | 7.0 | 0.00 | 0.00 | 0.00 | 83 | 1009.8 |
| 20260506090517 | 62 | 203 | 0.9 | 4.3 | 0.00 | 0.00 | 0.00 | 83 | 1010.0 |
| 20260506090038 | 62 | 225 | 1.7 | 6.1 | 0.00 | 0.00 | 0.00 | 83 | 1010.0 |
| 20260506085516 | 62 | 203 | 1.7 | 6.1 | 0.00 | 0.00 | 0.00 | 83 | 1010.0 |
| 20260506085016 | 62 | 203 | 1.7 | 7.8 | 0.00 | 0.00 | 0.00 | 83 | 1010.0 |
| 20260506084517 | 62 | 225 | 0.9 | 6.1 | 0.00 | 0.00 | 0.00 | 83 | 1010.0 |
| 20260506084016 | 62 | 203 | 1.7 | 4.3 | 0.00 | 0.00 | 0.00 | 83 | 1010.0 |
| 20260506083516 | 62 | 203 | 0.9 | 6.1 | 0.00 | 0.00 | 0.00 | 83 | 1009.9 |
| 20260506083058 | 62 | 158 | 0.9 | 5.2 | 0.00 | 0.00 | 0.00 | 83 | 1010.0 |
| 20260506082516 | 62 | 203 | 0.9 | 3.5 | 0.00 | 0.00 | 0.00 | 82 | 1010.0 |
| 20260506082016 | 62 | 180 | 0.9 | 3.5 | 0.00 | 0.00 | 0.00 | 82 | 1010.2 |
| 20260506081516 | 62 | 0.0 | 1.7 | 0.00 | 0.00 | 0.00 | 82 | 1010.1 | |
| 20260506081017 | 62 | 203 | 0.9 | 2.6 | 0.00 | 0.00 | 0.00 | 82 | 1010.1 |
| 20260506080516 | 62 | 180 | 0.9 | 4.3 | 0.00 | 0.00 | 0.00 | 82 | 1010.1 |
| 20260506073518 | 62 | 180 | 0.9 | 3.5 | 0.00 | 0.00 | 0.00 | 81 | 1010.2 |
| 20260506073016 | 62 | 180 | 0.9 | 4.3 | 0.00 | 0.00 | 0.00 | 80 | 1010.2 |
| 20260506072516 | 62 | 203 | 0.9 | 4.3 | 0.00 | 0.00 | 0.00 | 80 | 1010.1 |
| 20260506072016 | 63 | 180 | 1.7 | 5.2 | 0.00 | 0.00 | 0.00 | 80 | 1010.2 |
| 20260506071516 | 63 | 225 | 0.9 | 2.6 | 0.00 | 0.00 | 0.00 | 79 | 1010.3 |
| 20260506071016 | 63 | 203 | 1.7 | 7.0 | 0.00 | 0.00 | 0.00 | 79 | 1010.3 |
| 20260506070517 | 63 | 180 | 0.9 | 5.2 | 0.00 | 0.00 | 0.00 | 79 | 1010.4 |
| 20260506062517 | 63 | 0.0 | 1.7 | 0.00 | 0.00 | 0.00 | 76 | 1010.3 | |
| 20260506062016 | 63 | 180 | 0.9 | 3.5 | 0.00 | 0.00 | 0.00 | 76 | 1010.3 |
| 20260506061516 | 63 | 203 | 0.9 | 3.5 | 0.00 | 0.00 | 0.00 | 75 | 1010.2 |
| 20260506061016 | 63 | 158 | 0.9 | 4.3 | 0.00 | 0.00 | 0.00 | 75 | 1010.2 |
| 20260506060516 | 63 | 0.0 | 1.7 | 0.00 | 0.00 | 0.00 | 74 | 1010.2 | |
| 20260506051016 | 65 | 180 | 1.7 | 7.8 | 0.00 | 0.00 | 0.00 | 71 | 1010.7 |
| 20260506050537 | 66 | 203 | 1.7 | 6.1 | 0.00 | 0.00 | 0.00 | 71 | 1010.7 |
| 20260506045016 | 66 | 180 | 1.7 | 7.8 | 0.00 | 0.00 | 0.00 | 70 | 1010.7 |
| 20260506044516 | 66 | 225 | 2.6 | 7.8 | 0.00 | 0.00 | 0.00 | 70 | 1010.8 |
| 20260506044016 | 66 | 225 | 3.5 | 11.3 | 0.00 | 0.00 | 0.00 | 69 | 1010.8 |
| 20260506043516 | 66 | 158 | 1.7 | 6.1 | 0.00 | 0.00 | 0.00 | 69 | 1010.8 |
| 20260506043016 | 67 | 180 | 1.7 | 6.1 | 0.00 | 0.00 | 0.00 | 68 | 1010.7 |
| 20260506042516 | 67 | 203 | 3.5 | 11.3 | 0.00 | 0.00 | 0.00 | 68 | 1010.7 |
| 20260506042017 | 67 | 225 | 3.5 | 7.8 | 0.00 | 0.00 | 0.00 | 68 | 1010.7 |
| 20260506041516 | 67 | 225 | 2.6 | 7.8 | 0.00 | 0.00 | 0.00 | 67 | 1010.7 |
| 20260506041016 | 67 | 225 | 3.5 | 11.3 | 0.00 | 0.00 | 0.00 | 67 | 1010.6 |
| 20260506040516 | 67 | 225 | 3.5 | 9.6 | 0.00 | 0.00 | 0.00 | 67 | 1010.7 |
| 20260506040016 | 67 | 225 | 4.3 | 14.8 | 0.00 | 0.00 | 0.00 | 67 | 1010.6 |
| 20260506035516 | 67 | 225 | 4.3 | 13.0 | 0.00 | 0.00 | 0.00 | 67 | 1010.6 |
| 20260506035017 | 67 | 225 | 5.2 | 10.4 | 0.00 | 0.00 | 0.00 | 66 | 1010.7 |
| 20260506034556 | 68 | 225 | 6.1 | 11.3 | 0.00 | 0.00 | 0.00 | 66 | 1010.8 |
| 20260506034016 | 68 | 225 | 6.1 | 11.3 | 0.00 | 0.00 | 0.00 | 66 | 1010.8 |
| 20260506033516 | 68 | 225 | 5.2 | 10.4 | 0.00 | 0.00 | 0.00 | 65 | 1010.6 |
| 20260506033016 | 68 | 225 | 6.1 | 13.9 | 0.00 | 0.00 | 0.00 | 65 | 1010.6 |
| 20260506032516 | 68 | 225 | 7.0 | 14.8 | 0.00 | 0.00 | 0.00 | 64 | 1010.7 |
| 20260506032016 | 68 | 225 | 6.1 | 14.8 | 0.00 | 0.00 | 0.00 | 64 | 1010.6 |
| 20260506031516 | 68 | 225 | 5.2 | 11.3 | 0.00 | 0.00 | 0.00 | 64 | 1010.5 |
| 20260506031017 | 68 | 225 | 7.0 | 18.2 | 0.00 | 0.00 | 0.00 | 64 | 1010.5 |
| 20260506030557 | 68 | 225 | 2.6 | 8.7 | 0.00 | 0.00 | 0.00 | 64 | 1010.5 |
| 20260506030017 | 68 | 225 | 3.5 | 8.7 | 0.00 | 0.00 | 0.00 | 64 | 1010.6 |
| 20260506025536 | 68 | 225 | 5.2 | 10.4 | 0.00 | 0.00 | 0.00 | 64 | 1010.5 |
| 20260506025016 | 67 | 248 | 5.2 | 12.2 | 0.00 | 0.00 | 0.00 | 64 | 1010.5 |
| 20260506024516 | 67 | 225 | 3.5 | 10.4 | 0.00 | 0.00 | 0.00 | 64 | 1010.5 |
| 20260506024017 | 67 | 225 | 3.5 | 9.6 | 0.00 | 0.00 | 0.00 | 64 | 1010.5 |
| 20260506023516 | 67 | 225 | 3.5 | 11.3 | 0.00 | 0.00 | 0.00 | 65 | 1010.5 |
| 20260506023016 | 67 | 225 | 3.5 | 9.6 | 0.00 | 0.00 | 0.00 | 65 | 1010.6 |
| 20260506022517 | 67 | 203 | 2.6 | 7.8 | 0.00 | 0.00 | 0.00 | 65 | 1010.6 |
| 20260506022017 | 67 | 225 | 3.5 | 8.7 | 0.00 | 0.00 | 0.00 | 65 | 1010.6 |
| 20260506021516 | 67 | 203 | 4.3 | 10.4 | 0.00 | 0.00 | 0.00 | 65 | 1010.6 |
| 20260506021036 | 67 | 203 | 3.5 | 10.4 | 0.00 | 0.00 | 0.00 | 65 | 1010.5 |
| 20260506020558 | 67 | 225 | 1.7 | 5.2 | 0.00 | 0.00 | 0.00 | 65 | 1010.5 |
| 20260506020017 | 67 | 180 | 1.7 | 6.1 | 0.00 | 0.00 | 0.00 | 64 | 1010.5 |
| 20260506015536 | 68 | 203 | 1.7 | 7.0 | 0.00 | 0.00 | 0.00 | 64 | 1010.5 |
| 20260506015016 | 68 | 225 | 4.3 | 10.4 | 0.00 | 0.00 | 0.00 | 64 | 1010.5 |
| 20260506014516 | 67 | 180 | 3.5 | 8.7 | 0.00 | 0.00 | 0.00 | 64 | 1010.6 |
| 20260506014016 | 67 | 203 | 3.5 | 13.0 | 0.00 | 0.00 | 0.00 | 64 | 1010.4 |
| 20260506013517 | 67 | 225 | 3.5 | 10.4 | 0.00 | 0.00 | 0.00 | 64 | 1010.4 |
| 20260506013016 | 67 | 203 | 3.5 | 8.7 | 0.00 | 0.00 | 0.00 | 63 | 1010.4 |
| 20260506012517 | 68 | 225 | 2.6 | 8.7 | 0.00 | 0.00 | 0.00 | 63 | 1010.3 |
| 20260506012016 | 68 | 203 | 1.7 | 6.1 | 0.00 | 0.00 | 0.00 | 62 | 1010.3 |
| 20260506011516 | 68 | 203 | 0.9 | 3.5 | 0.00 | 0.00 | 0.00 | 62 | 1010.3 |
| 20260506011016 | 68 | 225 | 1.7 | 7.0 | 0.00 | 0.00 | 0.00 | 62 | 1010.2 |
| 20260506010516 | 68 | 225 | 1.7 | 7.0 | 0.00 | 0.00 | 0.00 | 61 | 1010.1 |
| 20260506010016 | 69 | 225 | 1.7 | 5.2 | 0.00 | 0.00 | 0.00 | 61 | 1010.1 |
| 20260506005516 | 69 | 203 | 2.6 | 7.0 | 0.00 | 0.00 | 0.00 | 60 | 1010.0 |
| 20260506005016 | 69 | 225 | 1.7 | 7.8 | 0.00 | 0.00 | 0.00 | 60 | 1009.9 |
| 20260506004516 | 69 | 203 | 2.6 | 6.1 | 0.00 | 0.00 | 0.00 | 60 | 1009.9 |
| 20260506004037 | 69 | 203 | 2.6 | 7.0 | 0.00 | 0.00 | 0.00 | 60 | 1009.8 |
| 20260506003516 | 69 | 203 | 3.5 | 8.7 | 0.00 | 0.00 | 0.00 | 60 | 1009.8 |
| 20260506003017 | 69 | 225 | 1.7 | 6.1 | 0.00 | 0.00 | 0.00 | 60 | 1009.7 |
| 20260506002516 | 69 | 225 | 1.7 | 6.1 | 0.00 | 0.00 | 0.00 | 60 | 1009.5 |
| 20260506002016 | 69 | 225 | 0.9 | 3.5 | 0.00 | 0.00 | 0.00 | 60 | 1009.5 |
| 20260506001516 | 69 | 203 | 2.6 | 7.8 | 0.00 | 0.00 | 0.00 | 59 | 1009.5 |
| 20260506001016 | 69 | 203 | 0.9 | 7.8 | 0.00 | 0.00 | 0.00 | 60 | 1009.5 |
| 20260506000517 | 69 | 180 | 0.9 | 6.1 | 0.00 | 0.00 | 0.00 | 60 | 1009.4 |
| 20260506000017 | 69 | 158 | 0.9 | 4.3 | 0.00 | 0.00 | 0.00 | 60 | 1009.4 |
| 20260505235516 | 69 | 180 | 0.9 | 3.5 | 0.00 | 0.00 | 0.00 | 60 | 1009.3 |
| 20260505235016 | 69 | 203 | 1.7 | 6.1 | 0.00 | 0.00 | 0.00 | 59 | 1009.3 |
| 20260505234517 | 70 | 225 | 1.7 | 7.8 | 0.00 | 0.00 | 0.00 | 58 | 1009.1 |
| 20260505234016 | 70 | 225 | 2.6 | 7.0 | 0.00 | 0.00 | 0.00 | 57 | 1009.1 |
| 20260505233538 | 70 | 225 | 2.6 | 7.0 | 0.00 | 0.00 | 0.00 | 58 | 1009.0 |
| 20260505233016 | 70 | 203 | 1.7 | 6.1 | 0.00 | 0.00 | 0.00 | 58 | 1008.9 |
| 20260505232536 | 70 | 225 | 1.7 | 3.5 | 0.00 | 0.00 | 0.00 | 58 | 1008.7 |
| 20260505232016 | 70 | 225 | 2.6 | 6.1 | 0.00 | 0.00 | 0.00 | 59 | 1008.6 |
| 20260505231636 | 70 | 203 | 2.6 | 6.1 | 0.00 | 0.00 | 0.00 | 59 | 1008.7 |
| 20260505231017 | 70 | 248 | 1.7 | 4.3 | 0.00 | 0.00 | 0.00 | 58 | 1008.6 |
| 20260505230515 | 71 | 248 | 2.6 | 6.1 | 0.00 | 0.00 | 0.00 | 57 | 1008.5 |
| 20260505230017 | 71 | 225 | 0.9 | 2.6 | 0.00 | 0.00 | 0.00 | 57 | 1008.5 |
| 20260505225516 | 72 | 225 | 0.9 | 6.1 | 0.00 | 0.00 | 0.00 | 55 | 1008.5 |
| 20260505225016 | 73 | 158 | 0.9 | 6.1 | 0.00 | 0.00 | 0.00 | 54 | 1008.6 |
| 20260505224516 | 74 | 135 | 1.7 | 5.2 | 0.00 | 0.00 | 0.00 | 53 | 1008.5 |
| 20260505224017 | 75 | 135 | 1.7 | 5.2 | 0.00 | 0.00 | 0.00 | 51 | 1008.4 |
| 20260505223517 | 76 | 135 | 0.9 | 7.0 | 0.00 | 0.00 | 0.00 | 50 | 1008.4 |
| 20260505223036 | 77 | 158 | 2.6 | 8.7 | 0.00 | 0.00 | 0.00 | 48 | 1008.3 |
| 20260505222536 | 77 | 225 | 1.7 | 4.3 | 0.00 | 0.00 | 0.00 | 46 | 1008.3 |
| 20260505222016 | 78 | 180 | 1.7 | 6.1 | 0.00 | 0.00 | 0.00 | 44 | 1008.2 |
| 20260505221516 | 79 | 158 | 1.7 | 5.2 | 0.00 | 0.00 | 0.00 | 43 | 1008.1 |
| 20260505221016 | 80 | 225 | 5.2 | 17.4 | 0.00 | 0.00 | 0.00 | 40 | 1008.0 |
| 20260505220517 | 80 | 225 | 5.2 | 12.2 | 0.00 | 0.00 | 0.00 | 37 | 1008.0 |
| 20260505220016 | 80 | 225 | 7.8 | 16.5 | 0.00 | 0.00 | 0.00 | 37 | 1008.0 |
| 20260505215517 | 80 | 203 | 7.0 | 18.2 | 0.00 | 0.00 | 0.00 | 37 | 1007.9 |
| 20260505215016 | 80 | 225 | 6.1 | 13.0 | 0.00 | 0.00 | 0.00 | 37 | 1007.9 |
| 20260505214537 | 81 | 203 | 6.1 | 14.8 | 0.00 | 0.00 | 0.00 | 37 | 1007.9 |
| 20260505214016 | 80 | 203 | 6.1 | 15.6 | 0.00 | 0.00 | 0.00 | 37 | 1007.9 |
| 20260505213538 | 80 | 158 | 1.7 | 11.3 | 0.00 | 0.00 | 0.00 | 39 | 1008.0 |
| 20260505213037 | 81 | 158 | 2.6 | 7.8 | 0.00 | 0.00 | 0.00 | 39 | 1007.9 |
| 20260505212516 | 82 | 225 | 4.3 | 11.3 | 0.00 | 0.00 | 0.00 | 35 | 1007.9 |
| 20260505212017 | 82 | 225 | 7.8 | 17.4 | 0.00 | 0.00 | 0.00 | 34 | 1007.8 |
| 20260505211536 | 82 | 248 | 6.1 | 14.8 | 0.00 | 0.00 | 0.00 | 34 | 1007.7 |
| 20260505211017 | 83 | 225 | 5.2 | 11.3 | 0.00 | 0.00 | 0.00 | 34 | 1007.6 |
| 20260505210536 | 83 | 225 | 7.8 | 15.6 | 0.00 | 0.00 | 0.00 | 33 | 1007.6 |
| 20260505210016 | 84 | 225 | 6.1 | 14.8 | 0.00 | 0.00 | 0.00 | 32 | 1007.6 |
| 20260505205517 | 84 | 225 | 6.1 | 13.9 | 0.00 | 0.00 | 0.00 | 32 | 1007.6 |
| 20260505205017 | 83 | 225 | 8.7 | 14.8 | 0.00 | 0.00 | 0.00 | 32 | 1007.6 |
| 20260505204516 | 83 | 225 | 6.1 | 14.8 | 0.00 | 0.00 | 0.00 | 34 | 1007.6 |
| 20260505204016 | 83 | 225 | 6.1 | 12.2 | 0.00 | 0.00 | 0.00 | 34 | 1007.7 |
| 20260505203516 | 83 | 180 | 2.6 | 11.3 | 0.00 | 0.00 | 0.00 | 35 | 1007.7 |
| 20260505203037 | 84 | 225 | 4.3 | 11.3 | 0.00 | 0.00 | 0.00 | 35 | 1007.7 |
| 20260505202516 | 83 | 225 | 7.0 | 15.6 | 0.00 | 0.00 | 0.00 | 31 | 1007.6 |
| 20260505202016 | 82 | 225 | 9.6 | 18.2 | 0.00 | 0.00 | 0.00 | 32 | 1007.7 |
| 20260505201516 | 81 | 225 | 8.7 | 20.9 | 0.00 | 0.00 | 0.00 | 34 | 1007.8 |
| 20260505201017 | 80 | 225 | 1.7 | 7.8 | 0.00 | 0.00 | 0.00 | 39 | 1007.9 |
| 20260505200515 | 80 | 158 | 1.7 | 7.8 | 0.00 | 0.00 | 0.00 | 41 | 1007.9 |
| 20260505200016 | 79 | 180 | 1.7 | 7.0 | 0.00 | 0.00 | 0.00 | 44 | 1008.0 |
| 20260505195537 | 79 | 113 | 2.6 | 7.0 | 0.00 | 0.00 | 0.00 | 45 | 1008.1 |
| 20260505195016 | 79 | 135 | 0.9 | 5.2 | 0.00 | 0.00 | 0.00 | 45 | 1008.1 |
| 20260505194516 | 79 | 135 | 2.6 | 8.7 | 0.00 | 0.00 | 0.00 | 45 | 1008.2 |
| 20260505194016 | 79 | 135 | 1.7 | 6.1 | 0.00 | 0.00 | 0.00 | 46 | 1008.2 |
| 20260505193515 | 78 | 113 | 2.6 | 7.0 | 0.00 | 0.00 | 0.00 | 47 | 1008.3 |
| 20260505193015 | 78 | 135 | 1.7 | 4.3 | 0.00 | 0.00 | 0.00 | 48 | 1008.4 |
| 20260505192516 | 78 | 135 | 1.7 | 5.2 | 0.00 | 0.00 | 0.00 | 48 | 1008.6 |
| 20260505192016 | 78 | 135 | 1.7 | 4.3 | 0.00 | 0.00 | 0.00 | 48 | 1008.6 |
| 20260505191516 | 78 | 113 | 3.5 | 8.7 | 0.00 | 0.00 | 0.00 | 47 | 1008.7 |
| 20260505191035 | 78 | 135 | 2.6 | 6.1 | 0.00 | 0.00 | 0.00 | 46 | 1008.7 |
| 20260505190516 | 78 | 135 | 1.7 | 7.0 | 0.00 | 0.00 | 0.00 | 48 | 1008.9 |
| 20260505190015 | 77 | 135 | 1.7 | 6.1 | 0.00 | 0.00 | 0.00 | 49 | 1009.1 |
| 20260505185515 | 77 | 135 | 3.5 | 7.8 | 0.00 | 0.00 | 0.00 | 50 | 1009.2 |
| 20260505185017 | 76 | 135 | 3.5 | 7.0 | 0.00 | 0.00 | 0.00 | 49 | 1009.3 |
| 20260505184515 | 76 | 135 | 3.5 | 9.6 | 0.00 | 0.00 | 0.00 | 50 | 1009.3 |
| 20260505184017 | 76 | 113 | 3.5 | 7.8 | 0.00 | 0.00 | 0.00 | 49 | 1009.3 |
| 20260505183515 | 77 | 113 | 4.3 | 9.6 | 0.00 | 0.00 | 0.00 | 49 | 1009.4 |
| 20260505183016 | 77 | 113 | 3.5 | 8.7 | 0.00 | 0.00 | 0.00 | 48 | 1009.5 |
| 20260505182516 | 77 | 135 | 2.6 | 7.0 | 0.00 | 0.00 | 0.00 | 48 | 1009.6 |
| 20260505182017 | 77 | 135 | 3.5 | 7.8 | 0.00 | 0.00 | 0.00 | 49 | 1009.6 |
| 20260505181535 | 76 | 113 | 3.5 | 7.8 | 0.00 | 0.00 | 0.00 | 49 | 1009.5 |
| 20260505181057 | 76 | 113 | 3.5 | 8.7 | 0.00 | 0.00 | 0.00 | 49 | 1009.6 |
| 20260505180515 | 77 | 135 | 3.5 | 7.8 | 0.00 | 0.00 | 0.00 | 48 | 1009.7 |
| 20260505180015 | 77 | 113 | 3.5 | 8.7 | 0.00 | 0.00 | 0.00 | 47 | 1009.7 |
| 20260505175537 | 78 | 135 | 3.5 | 8.7 | 0.00 | 0.00 | 0.00 | 47 | 1009.8 |
| 20260505175017 | 78 | 135 | 4.3 | 8.7 | 0.00 | 0.00 | 0.00 | 46 | 1009.7 |
| 20260505174515 | 78 | 113 | 2.6 | 7.0 | 0.00 | 0.00 | 0.00 | 46 | 1009.7 |
| 20260505174036 | 78 | 135 | 2.6 | 7.0 | 0.00 | 0.00 | 0.00 | 46 | 1009.8 |
| 20260505173515 | 78 | 135 | 3.5 | 8.7 | 0.00 | 0.00 | 0.00 | 47 | 1009.9 |
| 20260505173015 | 78 | 113 | 4.3 | 7.8 | 0.00 | 0.00 | 0.00 | 46 | 1009.9 |
| 20260505172515 | 78 | 135 | 3.5 | 8.7 | 0.00 | 0.00 | 0.00 | 46 | 1009.9 |
| 20260505172015 | 78 | 113 | 3.5 | 7.8 | 0.00 | 0.00 | 0.00 | 46 | 1009.9 |
| 20260505171515 | 78 | 113 | 4.3 | 10.4 | 0.00 | 0.00 | 0.00 | 45 | 1010.0 |
| 20260505171015 | 79 | 113 | 4.3 | 9.6 | 0.00 | 0.00 | 0.00 | 45 | 1010.0 |
| 20260505170516 | 78 | 113 | 3.5 | 6.1 | 0.00 | 0.00 | 0.00 | 46 | 1010.0 |
| 20260505170015 | 78 | 113 | 4.3 | 8.7 | 0.00 | 0.00 | 0.00 | 45 | 1010.1 |
| 20260505165517 | 78 | 113 | 4.3 | 7.8 | 0.00 | 0.00 | 0.00 | 45 | 1010.2 |
| 20260505165016 | 79 | 113 | 4.3 | 8.7 | 0.00 | 0.00 | 0.00 | 44 | 1010.2 |
| 20260505164519 | 79 | 135 | 3.5 | 8.7 | 0.00 | 0.00 | 0.00 | 44 | 1010.3 |
| 20260505164018 | 79 | 135 | 3.5 | 7.8 | 0.00 | 0.00 | 0.00 | 44 | 1010.4 |
| 20260505163518 | 79 | 113 | 2.6 | 7.0 | 0.00 | 0.00 | 0.00 | 44 | 1010.3 |
| 20260505163057 | 79 | 135 | 2.6 | 7.0 | 0.00 | 0.00 | 0.00 | 44 | 1010.4 |